234  
ASUS41 KBGM 250510  
RWRBGM  
 
REGIONAL WEATHER ROUNDUP  
NATIONAL WEATHER SERVICE BINGHAMTON NY  
100 AM EDT MON MAY 25 2020  
 
NOTE: "FAIR" INDICATES FEW OR NO CLOUDS BELOW 12,000 FEET WITH NO  
SIGNIFICANT WEATHER AND/OR S TO VISIBILITY
.  
 
* = STATION(S) THAT DOES NOT REPORT PRECIPITATION, SUCH AS RAIN,  
SNOW, ETC, ALSO NO THUNDER OR FOG.
 
 
NYZ009-015>018-022>025-036-037-044>046-055>057-062-250600   
..CENTRAL NEW YORK
 
 
 
CITY SKY/WX TMP DP RH WIND PRES REMARKS
 
BINGHAMTON FAIR 58 52 80 S8 30.16F  
CORTLAND FAIR 61 55 82 S6 30.15S  
DANSVILLE FAIR 67 57 70 SE9 30.07S  
ELMIRA FAIR 65 56 72 S5 30.12F  
ENDICOTT CLEAR 61 55 82 CALM 30.16S  
ITHACA FAIR 62 56 80 S14 30.14R  
HAMILTON CLEAR 61 48 63 S12 30.15S  
MONTICELLO FAIR 52 46 80 SE5 30.24F  
NORWICH CLEAR 61 -2 8 S8 30.17S  
ONEONTA CLEAR 55 45 67 S3 30.19R  
PENN YAN FAIR 66 56 70 S14G25 30.09S  
ROME FAIR 64 49 57 SE7 30.14R  
SENECA FALLS MOCLDY 64 55 72 S15 30.08F  
SIDNEY CLEAR 59 52 77 SW3 30.18S  
SKANEATELES FAIR 66 57 72 S8G17 30.10S  
SYRACUSE FAIR 68 54 60 S9G20 30.10R  

 
 
PAZ038>040-043-044-047-048-072-250600   
..NORTHEAST PENNSYLVANIA
 
 
 
CITY SKY/WX TMP DP RH WIND PRES REMARKS
 
HAZLETON CLOUDY 55 52 88 SE5 30.24F  
SCRANTON FAIR 59 51 75 VRB3 30.20F  
TOWANDA CLOUDY 64 55 72 S6 30.17S VSB 1/4  

 

 
KEY  
WCI = WIND CHILL INDEX  
VSB = VISIBILITY  
HX = HEAT INDEX  

 
 
 
CLICK HERE TO GO TO PREVIOUS BULLETINS.

The Nexlab NY Page
The Nexlab PA Page Main Text Page